Tracking 30995 objects as of 5-Jul-2025
HD Live streaming from Space Station
objects crossing your sky now

FENGYUN 1C DEB

Track FENGYUN 1C DEB now!
10-day predictions


NORAD ID: 32098
Int'l Code: 1999-025CQQ
Perigee: 692.7 km
Apogee: 973.1 km
Inclination: 98.6 °
Period: 101.4 minutes
Semi major axis: 7203 km
RCS: 0.0108 m2 (small)
Launch date: May 10, 1999
Source: People's Republic of China (PRC)
Launch site: Taiyaun Space Center, China (TSC)

Note: This is SATELLITE DEBRIS
Your satellite tracking list
STARLINK-33630
Track 1 satellite(s)




NASA's NSSDC Master Catalog

Two Line Element Set (TLE):
1 32098U 99025CQQ 25180.20434915  .00000286  00000-0  12959-3 0  9996
2 32098  98.6007 177.0359 0194616 241.4186 116.7286 14.19880349618642
Source of the keplerian elements: AFSPC